Time,TemperatureF,DewpointF,PressureIn,WindDirection,WindDirectionDegrees,WindSpeedMPH,WindSpeedGustMPH,Humidity,HourlyPrecipIn,Conditions,Clouds,dailyrainin,SoftwareType,DateUTC
2013-04-21 00:14:00,45.9,44.3,30.36,ENE,71,0.0,0.0,94,0.00,CLR,SCT,0.00,WeatherDisplay:10.37,2013-04-21 07:14:00,
2013-04-21 00:29:00,46.1,44.5,30.36,East,85,0.0,2.0,94,0.00,CLR,SCT,0.00,WeatherDisplay:10.37,2013-04-21 07:29:00,
2013-04-21 00:44:00,46.0,44.4,30.36,East,92,0.0,1.0,94,0.00,CLR,SCT,0.00,WeatherDisplay:10.37,2013-04-21 07:44:00,
2013-04-21 00:59:00,46.0,44.4,30.37,East,92,0.0,0.0,94,0.00,CLR,SCT,0.00,WeatherDisplay:10.37,2013-04-21 07:59:00,
2013-04-21 01:14:00,46.0,44.4,30.36,East,92,0.0,0.0,94,0.00,CLR,SCT,0.00,WeatherDisplay:10.37,2013-04-21 08:14:00,
2013-04-21 01:29:00,46.1,44.5,30.37,East,92,0.0,0.0,94,0.00,CLR,SCT,0.00,WeatherDisplay:10.37,2013-04-21 08:29:00,
2013-04-21 01:44:00,46.3,44.7,30.37,East,92,0.0,0.0,94,0.00,CLR,SCT,0.00,WeatherDisplay:10.37,2013-04-21 08:44:00,
2013-04-21 01:59:00,46.3,44.7,30.36,East,92,0.0,1.0,94,0.00,CLR,SCT,0.00,WeatherDisplay:10.37,2013-04-21 08:59:00,
2013-04-21 02:14:00,46.3,44.7,30.36,East,92,0.0,0.0,94,0.00,CLR,SCT,0.00,WeatherDisplay:10.37,2013-04-21 09:14:00,
2013-04-21 02:29:00,46.2,44.8,30.36,East,92,0.0,0.0,95,0.00,CLR,SCT,0.00,WeatherDisplay:10.37,2013-04-21 09:29:00,
2013-04-21 02:44:00,46.3,44.9,30.36,East,92,0.0,1.0,95,0.00,CLR,SCT,0.00,WeatherDisplay:10.37,2013-04-21 09:44:00,
2013-04-21 02:59:00,46.3,44.9,30.35,East,92,0.0,0.0,95,0.00,CLR,SCT,0.00,WeatherDisplay:10.37,2013-04-21 09:59:00,
2013-04-21 03:14:00,46.2,44.8,30.35,East,92,0.0,1.0,95,0.00,CLR,SCT,0.00,WeatherDisplay:10.37,2013-04-21 10:14:00,
2013-04-21 03:29:00,46.3,44.9,30.35,East,92,0.0,0.0,95,0.00,CLR,SCT,0.00,WeatherDisplay:10.37,2013-04-21 10:29:00,
2013-04-21 03:44:00,46.3,44.9,30.34,East,92,0.0,0.0,95,0.00,CLR,SCT,0.00,WeatherDisplay:10.37,2013-04-21 10:44:00,
2013-04-21 03:59:00,46.4,44.5,30.34,SE,131,0.0,3.0,93,0.00,CLR,SCT,0.00,WeatherDisplay:10.37,2013-04-21 10:59:00,
2013-04-21 04:14:00,46.4,44.8,30.34,SE,132,0.0,1.0,94,0.00,CLR,SCT,0.00,WeatherDisplay:10.37,2013-04-21 11:14:00,
2013-04-21 04:29:00,46.3,44.7,30.34,SE,132,0.0,0.0,94,0.00,CLR,SCT,0.00,WeatherDisplay:10.37,2013-04-21 11:29:00,
2013-04-21 04:44:00,46.2,44.6,30.34,SE,132,0.0,1.0,94,0.00,CLR,SCT,0.00,WeatherDisplay:10.37,2013-04-21 11:44:00,
2013-04-21 04:59:00,46.3,44.7,30.35,SE,132,0.0,0.0,94,0.00,CLR,SCT,0.00,WeatherDisplay:10.37,2013-04-21 11:59:00,
2013-04-21 05:14:00,46.3,44.9,30.35,SE,132,0.0,1.0,95,0.00,CLR,SCT,0.00,WeatherDisplay:10.37,2013-04-21 12:14:00,
2013-04-21 05:29:00,46.1,44.5,30.34,SE,132,0.0,1.0,94,0.00,CLR,SCT,0.00,WeatherDisplay:10.37,2013-04-21 12:29:00,
2013-04-21 05:44:00,46.1,44.5,30.34,SE,132,0.0,1.0,94,0.00,CLR,SCT,0.00,WeatherDisplay:10.37,2013-04-21 12:44:00,
2013-04-21 05:59:00,46.2,44.6,30.34,SE,132,0.0,0.0,94,0.00,CLR,SCT,0.00,WeatherDisplay:10.37,2013-04-21 12:59:00,
2013-04-21 06:14:00,46.1,44.7,30.34,SE,132,0.0,0.0,95,0.00,CLR,SCT,0.00,WeatherDisplay:10.37,2013-04-21 13:14:00,
2013-04-21 06:29:00,46.1,44.7,30.34,SE,132,0.0,0.0,95,0.00,CLR,SCT,0.00,WeatherDisplay:10.37,2013-04-21 13:29:00,
2013-04-21 06:44:00,46.2,44.8,30.35,SE,132,0.0,1.0,95,0.00,CLR,SCT,0.00,WeatherDisplay:10.37,2013-04-21 13:44:00,
2013-04-21 06:59:00,46.2,44.8,30.34,SE,132,0.0,0.0,95,0.00,CLR,SCT,0.00,WeatherDisplay:10.37,2013-04-21 13:59:00,
2013-04-21 07:14:00,46.1,44.7,30.35,SE,132,0.0,0.0,95,0.00,CLR,SCT,0.00,WeatherDisplay:10.37,2013-04-21 14:14:00,
2013-04-21 07:29:00,46.3,44.9,30.35,SE,132,0.0,0.0,95,0.00,CLR,SCT,0.00,WeatherDisplay:10.37,2013-04-21 14:29:00,
2013-04-21 07:44:00,46.3,44.9,30.35,SE,132,0.0,1.0,95,0.00,CLR,SCT,0.00,WeatherDisplay:10.37,2013-04-21 14:44:00,
2013-04-21 07:59:00,46.4,45.0,30.35,SE,132,0.0,0.0,95,0.00,CLR,SCT,0.00,WeatherDisplay:10.37,2013-04-21 14:59:00,
2013-04-21 08:14:00,46.5,45.1,30.35,SE,132,0.0,0.0,95,0.00,CLR,SCT,0.00,WeatherDisplay:10.37,2013-04-21 15:14:00,
2013-04-21 08:29:00,46.5,45.1,30.35,SE,132,0.0,0.0,95,0.01,RA,SCT,0.01,WeatherDisplay:10.37,2013-04-21 15:29:00,
2013-04-21 08:44:00,46.6,45.2,30.34,SE,132,1.0,2.0,95,0.00,CLR,SCT,0.01,WeatherDisplay:10.37,2013-04-21 15:44:00,
2013-04-21 08:59:00,46.7,45.6,30.35,SE,132,0.0,2.0,96,0.01,RA,SCT,0.02,WeatherDisplay:10.37,2013-04-21 15:59:00,
2013-04-21 09:14:00,47.2,46.2,30.34,SE,132,0.0,3.0,96,0.00,CLR,SCT,0.02,WeatherDisplay:10.37,2013-04-21 16:14:00,
2013-04-21 09:29:00,47.9,46.0,30.34,SE,134,0.0,2.0,93,0.00,CLR,SCT,0.02,WeatherDisplay:10.37,2013-04-21 16:29:00,
2013-04-21 09:44:00,48.7,46.2,30.34,North,355,0.0,2.0,91,0.00,CLR,SCT,0.02,WeatherDisplay:10.37,2013-04-21 16:44:00,
2013-04-21 09:59:00,49.4,46.6,30.34,NNW,343,0.0,2.0,90,0.00,CLR,SCT,0.02,WeatherDisplay:10.37,2013-04-21 16:59:00,
2013-04-21 10:14:00,49.9,46.2,30.34,WSW,239,0.0,4.0,87,0.00,CLR,SCT,0.02,WeatherDisplay:10.37,2013-04-21 17:14:00,
2013-04-21 10:29:00,49.6,46.5,30.34,WNW,285,0.0,3.0,89,0.00,CLR,SCT,0.02,WeatherDisplay:10.37,2013-04-21 17:29:00,
2013-04-21 10:44:00,49.8,47.0,30.34,West,264,0.0,6.0,90,0.00,CLR,SCT,0.02,WeatherDisplay:10.37,2013-04-21 17:44:00,
2013-04-21 10:59:00,49.5,46.7,30.34,WNW,282,1.0,5.0,90,0.00,CLR,SCT,0.02,WeatherDisplay:10.37,2013-04-21 17:59:00,
2013-04-21 11:14:00,50.0,46.8,30.35,SW,217,0.0,5.0,89,0.00,CLR,SCT,0.02,WeatherDisplay:10.37,2013-04-21 18:14:00,
2013-04-21 11:29:00,50.3,46.9,30.34,West,280,0.0,6.0,88,0.00,CLR,SCT,0.02,WeatherDisplay:10.37,2013-04-21 18:29:00,
2013-04-21 11:44:00,50.8,46.8,30.34,West,270,1.0,5.0,86,0.00,CLR,SCT,0.02,WeatherDisplay:10.37,2013-04-21 18:44:00,
2013-04-21 11:59:00,51.2,47.1,30.34,West,277,0.0,4.0,86,0.00,CLR,SCT,0.02,WeatherDisplay:10.37,2013-04-21 18:59:00,
2013-04-21 12:14:00,51.9,47.2,30.34,WNW,296,0.0,7.0,84,0.00,CLR,SCT,0.02,WeatherDisplay:10.37,2013-04-21 19:14:00,
2013-04-21 12:29:00,52.2,46.6,30.33,SW,222,1.0,4.0,81,0.00,CLR,SCT,0.02,WeatherDisplay:10.37,2013-04-21 19:29:00,
2013-04-21 12:44:00,52.1,46.4,30.34,West,279,0.0,5.0,81,0.00,CLR,SCT,0.02,WeatherDisplay:10.37,2013-04-21 19:44:00,
2013-04-21 12:59:00,51.9,46.6,30.34,West,266,1.0,5.0,82,0.00,CLR,SCT,0.02,WeatherDisplay:10.37,2013-04-21 19:59:00,
2013-04-21 13:14:00,51.8,46.2,30.33,WSW,258,2.0,5.0,81,0.00,CLR,SCT,0.02,WeatherDisplay:10.37,2013-04-21 20:14:00,
2013-04-21 13:29:00,52.1,46.4,30.33,West,272,1.0,7.0,81,0.00,CLR,SCT,0.02,WeatherDisplay:10.37,2013-04-21 20:29:00,
2013-04-21 13:44:00,52.2,46.5,30.33,WNW,287,2.0,7.0,81,0.00,CLR,SCT,0.02,WeatherDisplay:10.37,2013-04-21 20:44:00,
2013-04-21 13:59:00,51.4,46.1,30.33,WNW,290,0.0,10.0,82,0.00,CLR,SCT,0.02,WeatherDisplay:10.37,2013-04-21 20:59:00,
2013-04-21 14:14:00,50.7,46.0,30.34,West,275,2.0,10.0,84,0.00,CLR,SCT,0.02,WeatherDisplay:10.37,2013-04-21 21:14:00,
2013-04-21 14:29:00,50.5,46.2,30.34,West,272,2.0,7.0,85,0.00,CLR,SCT,0.02,WeatherDisplay:10.37,2013-04-21 21:29:00,
2013-04-21 14:44:00,50.0,46.0,30.34,NW,313,1.0,6.0,86,0.00,CLR,SCT,0.02,WeatherDisplay:10.37,2013-04-21 21:44:00,
2013-04-21 14:59:00,50.0,46.3,30.34,WSW,254,0.0,4.0,87,0.00,CLR,SCT,0.02,WeatherDisplay:10.37,2013-04-21 21:59:00,
2013-04-21 15:15:00,50.7,46.6,30.34,WNW,292,0.0,4.0,86,0.00,CLR,SCT,0.02,WeatherDisplay:10.37,2013-04-21 22:15:00,
2013-04-21 15:29:00,51.1,46.7,30.33,West,275,0.0,3.0,85,0.00,CLR,SCT,0.02,WeatherDisplay:10.37,2013-04-21 22:29:00,
2013-04-21 15:44:00,51.4,46.7,30.33,West,270,1.0,4.0,84,0.00,CLR,SCT,0.02,WeatherDisplay:10.37,2013-04-21 22:44:00,
2013-04-21 15:59:00,51.6,46.9,30.33,SW,231,0.0,6.0,84,0.00,CLR,SCT,0.02,WeatherDisplay:10.37,2013-04-21 22:59:00,
2013-04-21 16:14:00,51.7,46.7,30.33,West,277,1.0,2.0,83,0.00,CLR,SCT,0.02,WeatherDisplay:10.37,2013-04-21 23:14:00,
2013-04-21 16:29:00,51.6,46.9,30.33,West,274,0.0,5.0,84,0.00,CLR,SCT,0.02,WeatherDisplay:10.37,2013-04-21 23:29:00,
2013-04-21 16:44:00,51.9,47.2,30.33,WNW,291,1.0,4.0,84,0.00,CLR,SCT,0.02,WeatherDisplay:10.37,2013-04-21 23:44:00,
2013-04-21 16:59:00,51.8,46.8,30.33,West,278,0.0,4.0,83,0.00,CLR,SCT,0.02,WeatherDisplay:10.37,2013-04-21 23:59:00,
2013-04-21 17:14:00,52.1,47.1,30.32,WSW,250,0.0,3.0,83,0.00,CLR,SCT,0.02,WeatherDisplay:10.37,2013-04-22 00:14:00,
2013-04-21 17:29:00,53.3,47.3,30.32,SW,231,1.0,4.0,80,0.00,CLR,SCT,0.02,WeatherDisplay:10.37,2013-04-22 00:29:00,
2013-04-21 17:44:00,52.8,47.2,30.31,West,262,0.0,5.0,81,0.00,CLR,SCT,0.02,WeatherDisplay:10.37,2013-04-22 00:44:00,
2013-04-21 17:59:00,53.0,47.3,30.31,SW,217,0.0,2.0,81,0.00,CLR,SCT,0.02,WeatherDisplay:10.37,2013-04-22 00:59:00,
2013-04-21 18:14:00,52.9,47.6,30.31,WSW,257,0.0,2.0,82,0.00,CLR,SCT,0.02,WeatherDisplay:10.37,2013-04-22 01:14:00,
2013-04-21 18:29:00,52.9,47.2,30.31,WSW,249,0.0,3.0,81,0.00,CLR,SCT,0.02,WeatherDisplay:10.37,2013-04-22 01:29:00,
2013-04-21 18:44:00,52.7,47.7,30.31,West,266,0.0,2.0,83,0.00,CLR,SCT,0.02,WeatherDisplay:10.37,2013-04-22 01:44:00,
2013-04-21 18:59:00,52.3,47.6,30.31,West,268,0.0,5.0,84,0.00,CLR,SCT,0.02,WeatherDisplay:10.37,2013-04-22 01:59:00,
2013-04-21 19:14:00,52.0,47.7,30.32,West,264,1.0,4.0,85,0.00,CLR,SCT,0.02,WeatherDisplay:10.37,2013-04-22 02:14:00,
2013-04-21 19:29:00,51.8,47.7,30.31,WSW,238,0.0,4.0,86,0.00,CLR,SCT,0.02,WeatherDisplay:10.37,2013-04-22 02:29:00,
2013-04-21 19:44:00,52.4,47.7,30.31,WSW,250,0.0,2.0,84,0.00,CLR,SCT,0.02,WeatherDisplay:10.37,2013-04-22 02:44:00,
2013-04-21 19:59:00,52.0,47.3,30.31,West,276,0.0,3.0,84,0.00,CLR,SCT,0.02,WeatherDisplay:10.37,2013-04-22 02:59:00,
2013-04-21 20:14:00,51.1,46.7,30.32,WNW,284,0.0,3.0,85,0.00,CLR,SCT,0.02,WeatherDisplay:10.37,2013-04-22 03:14:00,
2013-04-21 20:29:00,50.1,46.4,30.32,North,9,0.0,4.0,87,0.00,CLR,SCT,0.02,WeatherDisplay:10.37,2013-04-22 03:29:00,
2013-04-21 20:44:00,49.5,46.4,30.33,North,9,0.0,0.0,89,0.00,CLR,SCT,0.02,WeatherDisplay:10.37,2013-04-22 03:44:00,
2013-04-21 20:59:00,49.1,46.3,30.33,North,9,0.0,2.0,90,0.00,CLR,SCT,0.02,WeatherDisplay:10.37,2013-04-22 03:59:00,
2013-04-21 21:14:00,49.0,46.2,30.33,North,9,0.0,1.0,90,0.00,CLR,SCT,0.02,WeatherDisplay:10.37,2013-04-22 04:14:00,
2013-04-21 21:29:00,49.0,46.5,30.33,North,9,0.0,0.0,91,0.00,CLR,SCT,0.02,WeatherDisplay:10.37,2013-04-22 04:29:00,
2013-04-21 21:44:00,48.8,46.3,30.34,North,9,0.0,0.0,91,0.00,CLR,SCT,0.02,WeatherDisplay:10.37,2013-04-22 04:44:00,
2013-04-21 21:59:00,48.8,46.6,30.34,North,9,0.0,0.0,92,0.00,CLR,SCT,0.02,WeatherDisplay:10.37,2013-04-22 04:59:00,
2013-04-21 22:14:00,48.7,46.5,30.34,North,10,0.0,3.0,92,0.00,CLR,SCT,0.02,WeatherDisplay:10.37,2013-04-22 05:14:00,
2013-04-21 22:29:00,48.7,46.2,30.35,NNE,22,0.0,3.0,91,0.00,CLR,SCT,0.02,WeatherDisplay:10.37,2013-04-22 05:29:00,
2013-04-21 22:44:00,48.6,46.1,30.35,NNE,22,0.0,1.0,91,0.00,CLR,SCT,0.02,WeatherDisplay:10.37,2013-04-22 05:44:00,
2013-04-21 22:59:00,47.9,45.4,30.35,NNE,22,0.0,0.0,91,0.00,CLR,SCT,0.02,WeatherDisplay:10.37,2013-04-22 05:59:00,
2013-04-21 23:14:00,47.1,44.9,30.35,NNE,23,0.0,1.0,92,0.00,CLR,SCT,0.02,WeatherDisplay:10.37,2013-04-22 06:14:00,
2013-04-21 23:29:00,46.8,44.9,30.35,NE,42,0.0,2.0,93,0.00,CLR,SCT,0.02,WeatherDisplay:10.37,2013-04-22 06:29:00,
2013-04-21 23:44:00,46.9,45.0,30.35,NE,43,0.0,0.0,93,0.00,CLR,SCT,0.02,WeatherDisplay:10.37,2013-04-22 06:44:00,
2013-04-21 23:59:00,47.0,45.0,30.35,West,277,0.0,2.0,93,0.00,RA,SCT,0.00,WeatherDisplay:10.37,2013-04-22 06:59:00,